This demonstration page uses our WeatherBlox Daily Observations layout. Learn more.

Left ArrowRight Arrow

Hourly Observations for December 29, 2020

Temp ( °F °C ) Dew Point ( °F °C ) Humidity (%) Winds ( mph kmh ) Pressure ( in mb ) Visibility ( mi km ) Precip ( " mm )
12:16 am 00:16 Cloudy with Light Snow 27 -3 25 -4 93 93 ESE 14 22 30.37 1028 3 4 0.00 0.00
12:30 am 00:30 Cloudy with Light Snow 25 -4 25 -4 100 100 E 14 22 30.38 1029 2 2 0.00 0.00
12:40 am 00:40 Cloudy with Light Snow 25 -4 25 -4 100 100 SE 14 22 30.39 1029 2 3 0.00 0.00
12:56 am 00:56 Cloudy with Light Snow 25 -3.9 24 -4.4 96 96 SE 12 19 30.33 1027 2 3 0.00 0.00
1:22 am 01:22 Cloudy with Light Snow 25 -4 25 -4 100 100 ESE 12 19 30.37 1028 3 5 0.00 0.00
1:40 am 01:40 Cloudy with Light Snow 25 -4 23 -5 93 93 SE 10 17 30.37 1028 3 5 0.00 0.00
1:56 am 01:56 Cloudy with Light Snow 25 -3.9 24 -4.4 96 96 SE 13 20 30.30 1026 3 4 0.00 0.00
2:27 am 02:27 Cloudy with Light Snow 25 -4 23 -5 93 93 ESE 12 19 30.36 1028 3 5 0.01 0.25
2:32 am 02:32 Cloudy with Light Snow 25 -4 23 -5 93 93 ESE 12 19 30.36 1028 3 4 0.01 0.25
2:56 am 02:56 Cloudy with Light Snow 25 -3.9 23 -5 92 92 SE 12 19 30.29 1026 3 5 0.01 0.25
3:09 am 03:09 Cloudy with Light Snow 25 -4 23 -5 93 93 SE 13 20 30.36 1028 3 4 0.00 0.00
3:24 am 03:24 Cloudy with Light Snow 25 -4 23 -5 93 93 ESE 12 19 30.34 1027 3 5 0.01 0.25
3:38 am 03:38 Cloudy with Light Snow 25 -4 23 -5 93 93 ESE 13 20 30.34 1027 4 6 0.01 0.25
3:52 am 03:52 Cloudy with Light Snow 25 -4 23 -5 93 93 ESE 13 20 30.33 1027 3 4 0.01 0.25
3:56 am 03:56 Cloudy with Light Snow 25 -3.9 23 -5 92 92 ESE 13 20 30.26 1025 3 4 0.01 0.25
4:00 am 04:00 Cloudy with Light Snow 25 -4 23 -5 93 93 ESE 15 24 30.32 1027 3 5 0.00 0.00
4:51 am 04:51 Cloudy with Light Snow 25 -4 21 -6 86 86 ESE 15 24 30.28 1025 7 11 0.00 0.00
4:56 am 04:56 Cloudy with Light Snow 24 -4.4 22 -5.6 91 91 ESE 16 26 30.21 1023 8 13 0.00 0.00
5:20 am 05:20 Windy with Snow Likely 25 -4 21 -6 86 86 ESE 21 33 30.25 1024 7 11 0.00 0.00
5:39 am 05:39 Cloudy with Light Snow 25 -4 21 -6 86 86 ESE 17 28 30.24 1024 4 6 0.00 0.00
5:52 am 05:52 Cloudy with Light Snow 25 -4 21 -6 86 86 ESE 17 28 30.23 1024 3 5 0.00 0.00
5:56 am 05:56 Cloudy with Light Snow 24 -4.4 22 -5.6 91 91 ESE 17 28 30.17 1022 3 5 0.00 0.00
6:10 am 06:10 Windy with Snow Likely 23 -5 21 -6 93 93 ESE 21 33 30.24 1024 2 3 0.00 0.00
6:56 am 06:56 Windy with Snow Likely 23 -5 21 -6.1 92 92 ESE 23 37 30.14 1021 2 3 0.00 0.00
7:00 am 07:00 Windy with Snow Likely 23 -5 21 -6 93 93 ESE 21 33 30.20 1023 2 3 0.00 0.00
7:13 am 07:13 Windy with Snow Likely 23 -5 21 -6 93 93 ESE 23 37 30.19 1022 3 5 0.00 0.00
7:16 am 07:16 Windy with Snow Likely 23 -5 21 -6 93 93 ESE 25 41 30.19 1022 3 4 0.00 0.00
7:25 am 07:25 Windy with Snow Likely 23 -5 21 -6 93 93 ESE 23 37 30.18 1022 3 5 0.00 0.00
7:34 am 07:34 Windy with Snow Likely 23 -5 21 -6 93 93 SE 23 37 30.18 1022 3 4 0.00 0.00
7:42 am 07:42 Windy with Snow Likely 23 -5 21 -6 93 93 SE 20 31 30.19 1022 5 8 0.00 0.00
7:56 am 07:56 Windy with Snow Likely 23 -5 21 -6.1 92 92 SE 26 43 30.10 1019 4 6 0.00 0.00
8:08 am 08:08 Windy with Snow Likely 23 -5 21 -6 93 93 ESE 24 39 30.16 1021 2 3 0.00 0.00
8:29 am 08:29 Windy with Snow Likely 23 -5 21 -6 93 93 SE 20 31 30.16 1021 1 2 0.00 0.00
8:38 am 08:38 Windy with Snow Likely 23 -5 21 -6 93 93 SE 22 35 30.16 1021 2 2 0.00 0.00
8:56 am 08:56 Windy with Snow Likely 23 -5 21 -6.1 92 92 SE 24 39 30.09 1019 2 3 0.00 0.00
9:12 am 09:12 Windy with Snow Likely 23 -5 21 -6 93 93 SE 25 41 30.15 1021 3 5 0.00 0.00
9:16 am 09:16 Windy with Snow Likely 23 -5 21 -6 93 93 SE 24 39 30.14 1020 2 3 0.00 0.00
9:26 am 09:26 Windy with Snow Likely 23 -5 21 -6 93 93 SE 21 33 30.15 1021 3 5 0.00 0.00
9:56 am 09:56 Cloudy 23 -5 22 -5.6 96 96 SE 18 30 30.07 1018 8 13 0.01 0.25
10:56 am 10:56 Cloudy 24 -4.4 22 -5.6 91 91 SE 14 22 30.06 1018 7 11 0.01 0.25
11:40 am 11:40 Cloudy with Light Snow 25 -4 23 -5 93 93 SE 10 17 30.09 1019 9 14 0.02 0.51
11:56 am 11:56 Cloudy 25 -3.9 23 -5 92 92 SE 13 20 30.01 1016 9 14 0.03 0.76
12:56 pm 12:56 Cloudy 27 -2.8 25 -3.9 92 92 SSE 7 11 29.97 1015 8 13 0.02 0.51
1:08 pm 13:08 Cloudy 27 -3 25 -4 93 93 SSE 8 13 30.01 1016 8 13 0.01 0.25
1:56 pm 13:56 Cloudy with Mist and Fog 29 -1.7 27 -2.8 92 92 Calm 29.94 1014 6 10 0.03 0.76
2:22 pm 14:22 Cloudy with Mist and Fog 30 -1 28 -2 93 93 Calm 29.97 1015 3 4 0.00 0.00
2:43 pm 14:43 Cloudy with Mist and Fog 30 -1 27 -3 86 86 NW 3 6 29.97 1015 2 2 0.00 0.00
2:56 pm 14:56 Cloudy with Light Wintry Mix 29 -1.7 26 -3.3 89 89 NNW 5 7 29.93 1014 1 2 0.00 0.00
3:27 pm 15:27 Cloudy with Light Wintry Mix 28 -2 27 -3 93 93 Calm 29.98 1015 2 3 0.00 0.00
3:56 pm 15:56 Cloudy with Mist and Fog 28 -2.2 26 -3.3 92 92 WNW 3 6 29.93 1014 3 4 0.00 0.00
4:10 pm 16:10 Cloudy with Mist and Fog 28 -2 27 -3 93 93 NW 5 7 29.98 1015 3 5 0.00 0.00
4:56 pm 16:56 Cloudy with Mist and Fog 27 -2.8 26 -3.3 96 96 NNW 6 9 29.95 1014 5 8 0.00 0.00
5:41 pm 17:41 Cloudy 27 -3 25 -4 93 93 WNW 3 6 30.01 1016 10 16 0.00 0.00
5:56 pm 17:56 Cloudy 27 -2.8 26 -3.3 96 96 WNW 5 7 29.96 1015 10 16 0.00 0.00
6:56 pm 18:56 Cloudy 28 -2.2 26 -3.3 92 92 W 8 13 29.98 1015 10 16 0.00 0.00
7:24 pm 19:24 Partly Cloudy 27 -3 27 -3 100 100 W 13 20 30.04 1017 10 16 0.00 0.00
7:40 pm 19:40 Partly Cloudy 27 -3 25 -4 93 93 WNW 10 17 30.04 1017 10 16 0.00 0.00
7:49 pm 19:49 Mostly Cloudy 27 -3 25 -4 93 93 WNW 14 22 30.05 1017 10 16 0.00 0.00
7:56 pm 19:56 Mostly Cloudy 26 -3.3 25 -3.9 96 96 WNW 17 28 30.00 1016 10 16 0.00 0.00
8:35 pm 20:35 Cloudy 27 -3 25 -4 93 93 WNW 12 19 30.06 1018 10 16 0.00 0.00
8:56 pm 20:56 Cloudy 27 -2.8 26 -3.3 96 96 WNW 14 22 30.03 1017 10 16 0.00 0.00
9:56 pm 21:56 Cloudy 29 -1.7 28 -2.2 96 96 NW 16 26 30.04 1017 10 16 0.00 0.00
10:56 pm 22:56 Cloudy 31 -0.6 28 -2.2 89 89 NNW 16 26 30.06 1018 10 16 0.00 0.00
11:56 pm 23:56 Mostly Cloudy 30 -1.1 26 -3.3 85 85 NNW 22 35 30.07 1018 10 16 0.00 0.00

Powered by AerisWeather